Lid_Strength_Index
-1 -1 -0 2 11 11 12 11 7 9 8 5 5 6 7 6 8 11 1 0 -1 -0 -1 -2 -2 -2 -1 -1 -1 -1 -1 -1 -1 -1 -2 -1 -1 -1 -1 -2 -1 -1 -1 -1 -2 -1 -1 -1 -2
-0 0 2 6 12 14 13 9 9 7 6 5 5 5 7 8 4 3 2 -0 -1 -1 -1 -1 -1 -2 -1 -1 -1 -1 -1 -1 -1 -1 -1 -1 -1 -1 -1 -2 -1 -1 -2 -1 -1 -1 -1 -2 -2
-0 0 7 10 12 12 13 9 8 6 5 6 7 5 6 7 3 3 0 -0 -1 -1 -2 -2 -1 -2 -1 -1 -1 -1 -1 -1 -1 -1 -1 -1 -1 -1 -2 -1 -1 -1 -2 -1 -1 -1 -2 -2 -2
2 3 5 11 12 10 9 8 6 7 5 5 5 8 5 2 3 1 -0 -1 -0 -1 -1 -1 -2 -1 -1 -1 -1 -1 -1 -1 -1 -1 -1 -2 -2 -2 -2 -2 -1 -1 -1 -1 -1 -1 -1 -1 -1
2 4 10 11 11 9 7 6 6 7 6 6 5 8 7 3 1 0 -0 -0 -0 -1 -1 -1 -2 -2 -1 -2 -2 -1 -1 -1 -1 -1 -1 -2 -1 -1 -2 -2 -1 -1 -1 -1 -1 -1 -2 -2 -2
6 6 11 12 10 8 7 5 6 6 6 6 6 7 6 2 1 1 -0 -0 -1 -1 -1 -2 -2 -1 -1 -2 -1 -1 -1 -1 -2 -2 -1 -2 -2 -2 -2 -1 -1 -1 -1 -1 -1 -1 -2 -2 -2
7 8 10 10 10 9 8 5 6 6 6 6 4 8 5 3 1 0 -0 -1 -1 -1 -1 -2 -2 -2 -2 -2 -1 -1 -1 -1 -1 -2 -2 -2 -1 -1 -1 -2 -1 -1 -1 -1 -1 -1 -1 -1 -2
6 7 10 9 10 10 6 6 5 6 7 3 4 8 8 3 1 0 -0 -0 -0 -1 -1 -1 -2 -2 -2 -2 -1 -1 -1 -1 -1 -1 -1 -2 -2 -2 -2 -2 -2 -1 -1 -2 -1 -1 -1 -2 -2
4 9 11 10 9 9 6 7 5 4 6 5 4 4 3 1 1 1 1 1 0 -0 -1 -1 -1 -1 -2 -2 -1 -1 -1 -1 -1 -1 -1 -1 -2 -2 -2 -2 -2 -1 -1 -2 -1 -2 -1 -2 -2
7 9 9 7 6 7 6 6 6 6 6 6 5 3 2 2 2 3 2 2 1 1 -0 -1 -1 -1 -1 -1 -2 -2 -2 -2 -2 -2 -2 -2 -2 -2 -2 -2 -2 -1 -1 -1 -1 -1 -1 -2 -2
6 9 7 6 6 5 6 6 5 6 8 6 6 5 3 3 3 3 2 2 1 0 -0 -0 -1 -1 -1 -1 -1 -1 -1 -2 -2 -2 -2 -2 -2 -2 -2 -2 -2 -2 -2 -1 -2 -2 -1 -1 -2
8 6 6 6 6 6 7 5 6 6 6 4 4 3 3 3 3 2 2 2 1 1 0 -1 -1 -1 -2 -1 -1 -1 -1 -1 -1 -2 -2 -2 -1 -1 -2 -1 -1 -2 -2 -2 -2 -2 -2 -2 -2
7 6 5 5 5 5 5 6 6 6 4 3 3 3 3 3 3 2 1 1 1 1 0 -0 -1 -1 -1 -1 -1 -1 -1 -1 -1 -1 -2 -2 -2 -1 -2 -2 -1 -2 -2 -2 -1 -2 -2 -1 -1
5 5 5 5 5 5 6 6 6 5 4 4 4 4 3 3 3 2 2 2 1 0 0 -0 -1 -1 -1 -1 -2 -1 -1 -1 -1 -1 -2 -2 -2 -2 -1 -1 -1 -1 -2 -2 -2 -1 -1 -2 -2
5 6 6 7 5 6 5 7 7 5 4 5 5 4 3 3 2 2 2 1 1 0 -0 -0 -1 -1 -1 -1 -1 -1 -1 -1 -1 -1 -2 -2 -2 -2 -2 -1 -2 -2 -2 -2 -2 -2 -1 -1 -1
7 7 9 7 7 5 6 10 6 5 5 6 5 4 4 3 3 2 1 1 0 0 0 -0 -1 -1 -1 -1 -1 -1 -1 -1 -1 -1 -2 -2 -2 -2 -2 -1 -1 -2 -2 -1 -1 -1 -1 -1 -1
8 10 9 7 6 6 7 9 6 5 5 6 5 5 4 4 3 2 1 1 0 0 -0 -0 -1 -1 -1 -1 -1 -1 -2 -1 -1 -1 -1 -2 -2 -2 -2 -1 -2 -2 -2 -1 -1 -1 -1 -0 -1
9 9 8 8 6 6 8 8 7 5 5 6 5 5 4 4 3 2 1 1 0 0 -0 -0 -0 -1 -1 -1 -1 -1 -1 -1 -1 -1 -1 -2 -2 -1 -2 -2 -2 -2 -1 -1 -1 -1 -1 -1 -1
8 7 8 7 6 7 8 8 7 6 6 6 6 5 5 4 3 2 1 1 1 0 0 0 -0 -1 -0 0 0 0 1 -0 -1 -1 -2 -2 -2 -2 -2 -1 -2 -1 -1 -2 -2 -1 -0 0 -1
8 8 8 6 6 6 8 8 6 6 6 6 6 5 5 4 3 3 2 1 1 1 0 0 0 -0 -0 -0 -0 -0 -0 -0 -1 -1 -2 -2 -2 -2 -2 -2 -2 -2 -1 -1 -1 -1 0 -0 -1
8 8 8 8 6 6 7 9 8 6 6 5 5 5 4 4 4 3 3 2 1 1 1 1 0 -0 -0 -1 -1 -0 -1 -0 0 -0 -0 -1 -2 -2 -2 -2 -2 -2 -1 -0 -1 -1 -1 1 -0
10 7 8 8 8 10 7 13 9 7 7 6 6 5 5 4 3 3 3 2 2 1 0 0 -0 -0 -0 -1 -0 -0 1 1 0 -0 -1 -1 -2 -2 -2 -2 -2 -2 -2 -1 -1 -1 -1 -0 1
9 7 8 8 8 8 9 11 9 7 8 7 6 5 4 4 3 3 3 2 1 1 1 0 0 0 -0 -0 -1 0 0 0 -0 -0 -1 -1 -1 -2 -1 -2 -2 -1 -1 -2 -1 -1 -1 -0 -0
6 8 8 8 8 11 9 10 10 9 8 7 6 5 4 4 3 3 2 2 2 1 1 1 1 1 -0 -0 -0 -0 0 0 1 0 0 0 -0 -1 -2 -1 -2 -2 -1 -1 -1 -1 -1 -1 -1
7 9 11 12 12 13 9 9 9 7 6 6 6 5 4 4 3 3 3 2 2 2 1 1 1 1 0 0 0 0 0 0 0 0 0 0 0 -0 -1 -1 -1 -1 -1 -1 -2 -1 -1 -1 -0
7 8 11 14 13 12 8 11 9 5 4 4 4 4 4 4 3 3 3 2 2 2 1 1 1 1 1 0 0 -0 -0 0 0 -0 0 0 0 -0 -2 -1 -1 -1 -2 -1 -1 -1 -0 -1 -0
8 10 7 9 9 11 9 8 6 5 5 5 5 4 4 4 4 3 3 2 2 2 2 1 1 1 1 1 0 0 0 0 0 -0 -1 -0 -1 -1 -1 -1 -1 -1 -1 -1 -1 -0 -1 -1 -1
7 6 10 9 14 14 11 10 9 7 6 5 5 5 4 4 3 3 3 2 2 2 1 1 1 1 1 0 0 0 0 -0 -0 -0 -0 -1 -1 -1 -1 -1 -1 -1 -1 -1 -1 -1 -1 -1 -0
8 9 8 8 9 13 13 10 6 6 5 5 5 4 4 4 3 3 3 2 2 1 1 1 1 1 1 1 0 0 0 0 -0 -0 -0 -0 -1 -1 -1 -1 -1 -1 -1 -1 -1 -1 -1 -0 -0
8 8 8 11 12 10 10 10 5 5 5 4 4 3 3 3 3 3 2 2 2 2 2 2 1 1 1 1 1 1 0 0 0 0 -0 -1 -0 -1 -1 -1 -1 -1 -1 -1 -0 -0 -1 -0 0